Weather History for Rock Hill, SC

Change the Weather History Date:

Monday, January 14, 2013

  Actual Average Record
Temperature  
Mean Temperature 66 °F -  
Max Temperature 71 °F 48 °F 71 °F (1952)
Min Temperature 60 °F 29 °F 14 °F (1964)
Growing Degree Days 16 (Base 50)    
Moisture  
Dew Point 61 °F    
Average Humidity 91    
Maximum Humidity 100    
Minimum Humidity 75    
Precipitation  
Precipitation 0.05 in - - ()
Sea Level Pressure  
Sea Level Pressure 30.10 in    
Wind  
Wind Speed 5 mph (SSW)    
Max Wind Speed 9 mph    
Max Gust Speed -    
Visibility 7 miles    
Events Fog , Rain    
Averages and records for this station are not official NWS values.
T = Trace of Precipitation, MM = Missing Value Source: NWS Daily Summary

Daily Weather History Graph

Daily Weather History Graph

Search for Another Location

Airport:

Trip Planner

Search our weather history database for the weather conditions in past years. The results will help you decide how hot, cold, wet, or windy it might be!

Date:

Astronomy

Jan. 14, 2013 Rise Set
Actual Time 7:31 AM EST 5:35 PM EST
Civil Twilight 7:04 AM EST 6:02 PM EST
Nautical Twilight 6:33 AM EST 6:33 PM EST
Astronomical Twilight 6:02 AM EST 7:04 PM EST
Moon 9:13 AM EST (1/14) 9:08 PM EST (1/14)
Length of Visible Light 10h 58m
Length of Day
10h 03m
Waxing Crescent, 11% of the Moon is Illuminated
Jan 14
Waxing Crescent
Jan 18
First Quarter
Jan 26
Full
Feb 3
Last Quarter
Feb 10
New

Hourly Weather History & Observations

Time (EST) Temp. Dew Point Humidity Pressure Visibility Wind Dir Wind Speed Gust Speed Precip Events Conditions
12:54 AM 63.0 °F 59.0 °F 87% 30.08 in 10.0 mi South 6.9 mph - N/A   Clear
1:54 AM 63.0 °F 60.1 °F 90% 30.08 in 10.0 mi South 4.6 mph - N/A   Mostly Cloudy
2:54 AM 63.0 °F 59.0 °F 87% 30.09 in 10.0 mi SSW 8.1 mph - N/A   Overcast
3:54 AM 62.1 °F 59.0 °F 90% 30.09 in 10.0 mi SSW 5.8 mph - N/A   Overcast
5:54 AM 62.1 °F 57.9 °F 86% 30.07 in 10.0 mi South 3.5 mph - N/A   Mostly Cloudy
6:54 AM 61.0 °F 57.9 °F 90% 30.09 in 10.0 mi South 4.6 mph - 0.00 in   Mostly Cloudy
7:54 AM 61.0 °F 57.9 °F 90% 30.10 in 9.0 mi South 4.6 mph - 0.00 in Rain Light Rain
8:54 AM 61.0 °F 59.0 °F 93% 30.12 in 7.0 mi SSW 6.9 mph - 0.00 in Rain Light Rain
9:54 AM 61.0 °F 60.1 °F 97% 30.12 in 7.0 mi South 6.9 mph - 0.02 in   Overcast
10:54 AM 63.0 °F 61.0 °F 93% 30.12 in 7.0 mi SSW 6.9 mph - 0.00 in Rain Light Rain
11:30 AM 64.0 °F 62.1 °F 93% 30.14 in 6.0 mi SW 9.2 mph - 0.00 in Rain Light Rain
11:54 AM 64.0 °F 63.0 °F 96% 30.10 in 5.0 mi SSW 9.2 mph - 0.02 in Rain Light Rain
12:54 PM 64.9 °F 64.0 °F 97% 30.07 in 7.0 mi WSW 3.5 mph - 0.01 in   Overcast
1:54 PM 69.1 °F 64.0 °F 84% 30.05 in 9.0 mi SSW 5.8 mph - N/A   Mostly Cloudy
2:26 PM 69.1 °F 63.0 °F 81% 30.09 in 10.0 mi SW 8.1 mph - N/A   Mostly Cloudy
2:42 PM 70.0 °F 63.0 °F 78% 30.08 in 10.0 mi South 4.6 mph - N/A   Scattered Clouds
3:54 PM 71.1 °F 63.0 °F 75% 30.07 in 10.0 mi Calm Calm - N/A   Overcast
4:54 PM 69.1 °F 64.0 °F 84% 30.09 in 9.0 mi North 3.5 mph - N/A   Mostly Cloudy
5:54 PM 66.9 °F 64.0 °F 90% 30.09 in 9.0 mi Calm Calm - N/A   Mostly Cloudy
6:54 PM 63.0 °F 62.1 °F 97% 30.10 in 7.0 mi Calm Calm - N/A   Scattered Clouds
7:54 PM 61.0 °F 61.0 °F 100% 30.11 in 2.5 mi Calm Calm - N/A   Clear
8:06 PM 61.0 °F 60.1 °F 97% 30.11 in 1.0 mi Calm Calm - N/A   Clear
8:10 PM 61.0 °F 61.0 °F 100% 30.11 in 0.5 mi Calm Calm - N/A Fog Fog
8:31 PM 60.1 °F 60.1 °F 100% 30.11 in 1.0 mi Calm Calm - N/A   Clear
8:40 PM 61.0 °F 61.0 °F 100% 30.11 in 2.5 mi SSE 3.5 mph - N/A   Clear
8:54 PM 61.0 °F 61.0 °F 100% 30.09 in 7.0 mi South 3.5 mph - N/A   Clear
9:54 PM 63.0 °F 60.1 °F 90% 30.09 in 9.0 mi SSW 5.8 mph - N/A   Clear
10:54 PM 64.0 °F 60.1 °F 87% 30.09 in 9.0 mi South 5.8 mph - N/A   Clear
11:54 PM 63.0 °F 60.1 °F 90% 30.10 in 9.0 mi SSW 4.6 mph - N/A   Overcast